Tracking 30995 objects as of 5-Jul-2025
HD Live streaming from Space Station
objects crossing your sky now

SBS 6

Track SBS 6 now!
SBS 6 is classified as:


NORAD ID: 20872
Int'l Code: 1990-091A
Perigee: 36,122.2 km
Apogee: 36,191.8 km
Inclination: 12.1 °
Period: 1,454.7 minutes
Semi major axis: 42527 km
RCS: 24.6021 m2 (large)
Launch date: October 12, 1990
Source: United States (US)
Launch site: FRENCH GUIANA (FRGUI)
Your satellite tracking list
Your tracking list is empty




NASA's NSSDC Master Catalog

Two Line Element Set (TLE):
1 20872U 90091A   25186.58170850  .00000001  00000-0  00000-0 0  9995
2 20872  12.1142  31.3874 0008189 126.0539  61.1724  0.98989843 42667
Source of the keplerian elements: AFSPC